Regional Weather Roundup
Issued by NWS

Home | Current Version | Previous Version | Graphics & Text | Print | Product List | Glossary On
Versions: 1 2 3 4 5 6 7 8 9 10 11 12 13 14 15 16 17 18 19 20 21 22 23 24 25 26 27 28 29 30 31 32 33 34 35 36 37 38 39 40 41 42 43 44 45 46 47 48 49 50
000
ASUS43 KLMK 152302
RWRKY
KENTUCKY REGIONAL WEATHER ROUNDUP
NATIONAL WEATHER SERVICE LOUISVILLE KY
600 PM EST MON JAN 15 2018

NOTE "FAIR" INDICATES FEW OR NO CLOUDS BELOW 12,000 FEET
WITH NO SIGNIFICANT WEATHER AND/OR OBSTRUCTIONS TO VISIBILITY.

KYZ001>023-026-027-061>063-070>075-160000-
WESTERN AND SOUTH CENTRAL KENTUCKY

CITY           SKY/WX    TMP DP  RH WIND       PRES   REMARKS
PADUCAH        SNOW      28  24  85 NW9       30.39R VSB 1/2 WCI  19
HENDERSON      LGT SNOW  21  15  78 NW12      30.41R WCI   9
OWENSBORO      SNOW      23  21  92 NW17      30.39R VSB 1/2 WCI   9
HOPKINSVILLE   LGT SNOW  31  30  99 NW6       30.36R FOG     WCI  25
BOWLING GREEN  CLOUDY    33  29  85 W8        30.36R WCI  26
GLASGOW        NOT AVBL
$$

KYZ024-025-028>034-038-045-046-053-160000-
NORTH CENTRAL KENTUCKY

CITY           SKY/WX    TMP DP  RH WIND       PRES   REMARKS
LOUISVILLE/SDF LGT SNOW  30  27  88 SW8       30.34R FOG     WCI  22
LOUISVILLE/LOU LGT SNOW  30  28  92 SW8       30.35R FOG     WCI  22
FORT KNOX      LGT SNOW  29  27  92 SW9       30.32R FOG     WCI  20
$$

KYZ035>037-039>044-047>052-055>060-089>105-160000-
NORTHEAST KENTUCKY

CITY           SKY/WX    TMP DP  RH WIND       PRES   REMARKS
LEXINGTON      LGT SNOW  30  25  81 W8        30.30R WCI  22
COVINGTON      LGT SNOW  28  26  92 SW7       30.28R FOG     WCI  21
FRANKFORT      LGT SNOW  30  25  81 W6        30.31R WCI  24
$$

KYZ054-064>069-076>088-106>120-160000-
SOUTHEAST KENTUCKY

CITY           SKY/WX    TMP DP  RH WIND       PRES   REMARKS
JACKSON        CLOUDY    37  21  52 S5        30.27S WCI  33
LONDON         CLOUDY    40  21  46 SW5       30.29R
SOMERSET       NOT AVBL
MIDDLESBORO    FAIR      36  22  57 CALM      30.33R
MONTICELLO     CLOUDY    40  26  57 W15G21    30.33R WCI  32
$$





USA.gov is the U.S. government's official web portal to all federal, state and local government web resources and services.